Flag for U.S.A. Weather past 2 weeks in Brattleboro, Vermont, U.S.A.

Now
30 °F

Partly sunny.


Feels Like: 21 °F
Forecast: 15 / 31 °F
Wind: 10 mph from Northwest

Location: Keene / Dillant

Current Time: Mar 2, 2015 at 12:14:55 PM

Latest Report: Mar 2, 2015 at 11:35 AM


Visibility: 10 mi

Pressure: 29.98 "Hg

Humidity: 47%

Dew point: 12 °F

Location of BrattleboroLocation

Historic Weather in Brattleboro — Graph

°F

Brattleboro temperature yesterday

Maximum temperature yesterday: 27 °F (at 1:15 PM)
Minimum temperature yesterday: -8 °F (at 4:55 AM)
Average temperature yesterday: 12 °F

Past Weeks' High & Low Weather Summary

 TemperatureHumidityPressure
High39 °F (Feb 22, 3:35 PM)100% (Feb 22, 3:55 AM)30.73 "Hg (Feb 22, 3:55 AM)
Low-18 °F (Feb 24, 5:15 AM)28% (Feb 23, 4:35 PM)29.54 "Hg (Feb 19, 12:35 PM)
Average12 °F63%30.09 "Hg
* Reported Feb 15 10:15 AM — Mar 2 10:55 AM, Brattleboro, Weather by CustomWeather, © 2015

Note: Actual official high and low records may vary slightly from our data, if they occured in-between our weather recording intervals... More about our weather records

Advertising

Brattleboro weather history for previous 24 hours

 ConditionsComfort  
Time TempWeatherWind HumidityBarometerVisibility
10:55 AM
Mon, Mar 2
30 °FBroken clouds.8 mph59%29.97 "Hg10 mi
10:35 AM28 °FMostly cloudy.8 mph69%29.97 "Hg10 mi
10:15 AM27 °FMostly cloudy.No wind74%29.97 "Hg10 mi
9:55 AM23 °FMostly cloudy.No wind86%29.96 "Hg10 mi
9:35 AM21 °FMostly cloudy.No wind93%29.96 "Hg9 mi
9:15 AM19 °FMore clouds than sun.No wind93%29.96 "Hg7 mi
8:55 AM19 °FMostly cloudy.No wind93%29.95 "Hg7 mi
8:35 AM18 °FMostly cloudy.No wind93%29.95 "Hg5 mi
8:15 AM18 °FMostly cloudy.No wind86%29.96 "Hg5 mi
7:55 AM16 °FPartly sunny.No wind93%29.95 "Hg7 mi
7:35 AM14 °FPartly sunny.No wind92%29.95 "Hg1 mi
7:15 AM16 °FScattered clouds.No wind86%29.94 "Hg2 mi
6:55 AM16 °FLow clouds.No wind86%29.94 "Hg2 mi
6:35 AM16 °FLow clouds.3 mph86%29.94 "Hg7 mi
6:15 AM14 °FPassing clouds.No wind92%29.95 "Hg9 mi
5:55 AM16 °FPassing clouds.No wind86%29.94 "Hg7 mi
5:35 AM16 °FPassing clouds.No wind93%29.95 "Hg8 mi
5:15 AM16 °FPassing clouds.No wind93%29.95 "Hg8 mi
4:55 AM16 °FPassing clouds.No wind93%29.95 "Hg6 mi
4:35 AM16 °FLow clouds.No wind86%29.96 "Hg6 mi
4:15 AM14 °FLow clouds.No wind92%29.95 "Hg5 mi
3:55 AM14 °FLow clouds.No wind85%29.97 "Hg8 mi
3:35 AM16 °FPassing clouds.No wind86%29.98 "Hg6 mi
3:15 AM16 °FClear.No wind86%29.98 "Hg5 mi
2:55 AM16 °FPassing clouds.No wind93%29.99 "Hg7 mi
2:35 AM16 °FOvercast.No wind93%30.00 "Hg1 mi
2:15 AM18 °FPassing clouds.No wind93%30.00 "Hg2 mi
1:55 AM18 °FPassing clouds.No wind93%30.02 "Hg3 mi
1:35 AM19 °FPassing clouds.No wind86%30.03 "Hg10 mi
1:15 AM21 °FPassing clouds.No wind86%30.04 "Hg10 mi
12:55 AM21 °FPassing clouds.No wind93%30.04 "Hg10 mi
12:35 AM21 °FPassing clouds.No wind93%30.06 "Hg10 mi
12:15 AM23 °FClear.No wind86%30.07 "Hg10 mi
11:55 PM
Sun, Mar 1
23 °FClear.No wind86%30.08 "Hg10 mi
11:35 PM23 °FClear.No wind86%30.10 "Hg10 mi
11:15 PM23 °FClear.No wind86%30.12 "Hg7 mi
10:55 PM25 °FPassing clouds.No wind80%30.12 "Hg10 mi
10:15 PM23 °FOvercast.No wind86%30.14 "Hg4 mi
9:55 PM23 °FPassing clouds.No wind86%30.15 "Hg3 mi
9:35 PM23 °FPassing clouds.No wind86%30.17 "Hg3 mi
9:15 PM23 °FMostly cloudy.No wind93%30.18 "Hg2 mi
8:55 PM23 °FPassing clouds.No wind86%30.19 "Hg3 mi
8:35 PM23 °FClear.3 mph86%30.20 "Hg5 mi
8:15 PM23 °FClear.3 mph86%30.21 "Hg5 mi
7:55 PM23 °FPassing clouds.5 mph86%30.23 "Hg3 mi
7:35 PM23 °FOvercast.5 mph86%30.24 "Hg2 mi
7:15 PM23 °FMostly cloudy.7 mph86%30.25 "Hg2 mi
6:55 PM23 °FOvercast.5 mph86%30.26 "Hg3 mi
6:35 PM23 °FPassing clouds.3 mph86%30.27 "Hg4 mi
6:15 PM25 °FPassing clouds.3 mph80%30.27 "Hg3 mi
5:55 PM25 °FPassing clouds.5 mph80%30.28 "Hg3 mi
5:35 PM25 °FPartly sunny.6 mph80%30.30 "Hg2 mi
5:15 PM25 °FPartly sunny.7 mph80%30.31 "Hg2 mi
4:55 PM25 °FPartly sunny.7 mph80%30.33 "Hg3 mi
4:35 PM25 °FMostly cloudy.8 mph74%30.34 "Hg4 mi
4:15 PM25 °FMostly cloudy.9 mph74%30.35 "Hg5 mi
3:55 PM25 °FMore clouds than sun.12 mph74%30.36 "Hg7 mi
3:35 PM25 °FMostly cloudy.12 mph74%30.37 "Hg10 mi
3:15 PM25 °FMostly cloudy.13 mph69%30.38 "Hg10 mi
2:35 PM27 °FMostly cloudy.12 mph64%30.40 "Hg10 mi
2:15 PM27 °FMostly cloudy.14 mph64%30.41 "Hg10 mi
1:55 PM27 °FOvercast.15 mph64%30.42 "Hg10 mi
1:35 PM27 °FMore clouds than sun.12 mph59%30.43 "Hg10 mi
1:15 PM27 °FPartly sunny.12 mph50%30.45 "Hg10 mi
12:55 PM25 °FPassing clouds.10 mph50%30.47 "Hg10 mi
12:35 PM21 °FSunny.No wind54%30.49 "Hg10 mi
Weather by CustomWeather, © 2015

See weather overviewHow to use our weather pages